Погода в Торсхавне

Дания     62°00′47″N   6°46′44″W
темп.,
°C
ветер,
м/с
пор.,
м/с
влажн.,
%
обл.,
%
осадки,
мм/ч
давл.,
гПа
погр.,
м
17 мая, пн
пн1701:00+6св91198100 0.4 1004531
04:00+6св101297100 0.5 1004617
07:00+5св101296100 1.4 1006666
10:00+6св91195100 0.6 1007719
13:00+6ссв101194100 0.9 1008744
16:00+5ссв91191100 0.2 1009759
19:00+5ссв101292100 0.3 1009825
22:00+5ссв111289100 0.3 1010933
18 мая, вт
вт1801:00+5ссв11128492 0.4 1011962
04:00+5ссв10117788 0.1 10111104
07:00+4ссв10117591 0.1 10121247
10:00+4с10117397 0.1 10131249
13:00+5с10117095 0.1 10141241
16:00+5с9106896 0.0 10151269
19:00+4с9107098 0.1 10161293
22:00+4с8107697 0.1 10161215
19 мая, ср
ср1901:00+4с8107492 0.3 10171156
04:00+4ссз698397 0.1 1017761
07:00+5ссв9107123 0.4 10181170
10:00+5ссв10116715 0.1 10201311
13:00+5с9106578 0.1 10211396
16:00+5с896362 0.1 10211372
19:00+5с786240 0.1 10221303
22:00+4с686669 0.1 10221059
20 мая, чт
чт2001:00+4с676666 0.1 10221014
04:00+3с676657 0.1 1022930
07:00+4с566175 0.2 10201201
10:00+4ссв555972 0.1 10201161
13:00+4св666323 0.1 10191078
16:00+4св766715 0.0 1017939
19:00+4св8869100 0.1 10151049
22:00+5всв91075100 0.1 10121005
21 мая, пт
пт2101:00+5всв101181100 0.3 1010907
04:00+5всв111287100 0.1 1007897
07:00+5всв121588100 0.4 10051075
10:00+6всв12149083 0.3 1004947
13:00+6всв14178699 0.5 1003917
16:00+6всв141782100 0.1 1002974
19:00+6св14178299 0.3 10021077
22:00+6св131685100 0.1 10021217